Volver al catálogo

METEOR 2-5 DEB

ActivoPO
NORAD 38272·DEBRIS·🇷🇺 Russia

Lanzado Oct 31, 1979 desde Plesetsk Cosmodrome

Loading…

Próximos Pases (próximas 24 horas)

TLE

ActualizadoSource: Space-Track

Época: Sep 12, 2026, 04:15 UTC

1 38272U 79095BS  26255.17740127  .00004549  00000-0  13576-2 0  9997
2 38272  81.1958  44.8059 0027627 138.1024  36.3977 14.42679386673460

Sigue METEOR 2-5 DEB en tiempo real con AllMySat

Download on the App Store